Weather History for CXSE - February, 2013

Change the Weather History Date:

Saturday, February 2, 2013

  Actual Average Record
Temperature  
Mean Temperature -24 °F -  
Max Temperature -20 °F - - ()
Min Temperature -29 °F - - ()
Degree Days  
Heating Degree Days 90    
Moisture  
Dew Point -30 °F    
Average Humidity 71    
Maximum Humidity 75    
Minimum Humidity 57    
Precipitation  
Precipitation 0.00 in - - ()
Sea Level Pressure  
Sea Level Pressure 29.76 in    
Wind  
Wind Speed 19 mph ()    
Max Wind Speed 26 mph    
Max Gust Speed 32 mph    
T = Trace of Precipitation, MM = Missing Value Source: Averaged Metar Reports

Daily Weather History Graph

Daily Weather History Graph

Search for Another Location

Airport or City:

Trip Planner

Search our weather history database for the weather conditions in past years. The results will help you decide how hot, cold, wet, or windy it might be!

Date:

Astronomy

Feb. 02, 2013 Rise Set
Actual Time 11:18 AM MST 1:12 PM MST
Civil Twilight 8:52 AM MST 3:38 PM MST
Nautical Twilight 7:13 AM MST 5:18 PM MST
Astronomical Twilight 5:46 AM MST 6:45 PM MST
Moon 2:23 AM MST (2/2) 7:14 AM MST (2/2)
Length of Visible Light 6h 45m
Length of Day
1h 54m
Waning Gibbous, 59% of the Moon is Illuminated
Feb 2
Waning Gibbous
Feb 3
Last Quarter
Feb 10
New
Feb 17
First Quarter
Feb 25
Full

Hourly Weather History & Observations

Time (MST) Temp. Windchill Dew Point Humidity Pressure Visibility Wind Dir Wind Speed Gust Speed Precip Events Conditions
12:00 AM -29.6 °F -60.5 °F -36.4 °F 70% 29.80 in - NW 19.6 mph 27.6 mph N/A   Unknown
1:00 AM -29.7 °F -64.6 °F -36.6 °F 70% 29.79 in - NNW 26.5 mph - N/A   Unknown
2:00 AM -29.6 °F -62.5 °F -36.2 °F 70% 29.79 in - NW 23.0 mph - N/A   Unknown
3:00 AM -29.0 °F -59.8 °F -35.5 °F 71% 29.80 in - NW 19.6 mph - N/A   Unknown
4:00 AM -27.8 °F -58.1 °F -34.1 °F 72% 29.79 in - WNW 19.6 mph - N/A   Unknown
5:00 AM -27 °F - -33 °F 57% 29.77 in - WNW 21.9 mph - -  
5:00 AM -26.9 °F -58.3 °F -33.2 °F 72% 29.77 in - WNW 21.9 mph - N/A   Unknown
6:00 AM -25.6 °F -59.0 °F -31.7 °F 73% 29.76 in - NW 26.5 mph - N/A   Unknown
7:00 AM -25.6 °F -57.9 °F -31.7 °F 73% 29.76 in - NW 24.2 mph - N/A   Unknown
8:00 AM -24.2 °F -54.7 °F -30.1 °F 74% 29.76 in - WNW 21.9 mph - N/A   Unknown
9:00 AM -23.1 °F -52.0 °F -29.0 °F 74% 29.76 in - NW 19.6 mph - N/A   Unknown
10:00 AM -21.1 °F -51.3 °F -26.7 °F 75% 29.75 in - NW 23.0 mph - N/A   Unknown
11:00 AM -20 °F - -26 °F 61% 29.76 in - NW 24.2 mph - -  
11:00 AM -20.2 °F -50.7 °F -25.8 °F 75% 29.76 in - NW 24.2 mph 31.1 mph N/A   Unknown
12:00 PM -20.2 °F -50.1 °F -25.8 °F 75% 29.75 in - NW 23.0 mph - N/A   Unknown
1:00 PM -20.4 °F -46.3 °F -26.0 °F 75% 29.76 in - NW 16.1 mph - N/A   Unknown
2:00 PM -20.4 °F -52.0 °F -26.0 °F 75% 29.76 in - NNW 26.5 mph 32.2 mph N/A   Unknown
3:00 PM -20.9 °F -50.5 °F -26.5 °F 75% 29.75 in - NW 21.9 mph 28.8 mph N/A   Unknown
4:00 PM -21.3 °F -50.3 °F -26.9 °F 75% 29.77 in - NW 20.7 mph - N/A   Unknown
5:00 PM -23 °F - -29 °F 61% 29.76 in - NW 20.7 mph - -  
5:00 PM -22.9 °F -52.4 °F -28.7 °F 74% 29.76 in - NW 20.7 mph - N/A   Unknown
6:00 PM -22.7 °F -50.8 °F -28.5 °F 74% 29.75 in - NW 18.4 mph - N/A   Unknown
7:00 PM -23.6 °F -52.0 °F -29.6 °F 74% 29.75 in - NW 18.4 mph - N/A   Unknown
8:00 PM -23.3 °F -50.0 °F -29.0 °F 74% 29.75 in - NW 16.1 mph - N/A   Unknown
9:00 PM -23.6 °F -51.2 °F -29.6 °F 74% 29.75 in - NW 17.3 mph - N/A   Unknown
10:00 PM -24.3 °F -55.0 °F -30.5 °F 73% 29.73 in - NW 21.9 mph - N/A   Unknown
11:00 PM -25 °F - -31 °F 58% 29.73 in - NW 19.6 mph - -  
11:00 PM -25.1 °F -54.6 °F -31.2 °F 73% 29.73 in - NW 19.6 mph - N/A   Unknown